2023/01/26 00:00:00,55.3,-5.9
2023/01/26 00:10:00,55.4,-5.7
2023/01/26 00:20:00,55.5,-6.2
2023/01/26 00:30:00,55.1,-6.5
2023/01/26 00:40:00,54.9,-7.3
2023/01/26 00:50:00,54.8,-7.0
2023/01/26 01:00:00,54.7,-6.5
2023/01/26 01:10:00,54.6,-6.0
2023/01/26 01:20:00,54.4,-7.2
2023/01/26 01:30:00,54.4,-7.4
2023/01/26 01:40:00,54.3,-7.1
2023/01/26 01:50:00,54.1,-6.7
2023/01/26 02:00:00,54.0,-7.3
2023/01/26 02:10:00,53.9,-7.0
2023/01/26 02:20:00,53.7,-7.4
2023/01/26 02:30:00,53.6,-6.7
2023/01/26 02:40:00,53.5,-7.0
2023/01/26 02:50:00,53.4,-6.5
2023/01/26 03:00:00,53.1,-6.4
2023/01/26 03:10:00,52.9,-6.4
2023/01/26 03:20:00,52.8,-6.5
2023/01/26 03:30:00,52.8,-6.5
2023/01/26 03:40:00,52.7,-6.5
2023/01/26 03:50:00,52.6,-6.2
2023/01/26 04:00:00,52.5,-6.5
2023/01/26 04:10:00,52.4,-6.4
2023/01/26 04:20:00,52.3,-6.4
2023/01/26 04:30:00,52.2,-6.3
2023/01/26 04:40:00,52.2,-6.3
2023/01/26 04:50:00,52.1,-6.2
2023/01/26 05:00:00,52.0,-6.2
2023/01/26 05:10:00,52.0,-6.2
2023/01/26 05:20:00,51.9,-6.3
2023/01/26 05:30:00,51.8,-6.1
2023/01/26 05:40:00,51.7,-6.2
2023/01/26 05:50:00,51.6,-6.1
2023/01/26 06:00:00,51.5,-6.0
2023/01/26 06:10:00,51.4,-6.1
2023/01/26 06:20:00,51.4,-6.2
2023/01/26 06:30:00,51.6,-6.0
2023/01/26 06:40:00,51.6,-6.0
2023/01/26 06:50:00,51.4,-6.0
2023/01/26 07:00:00,51.4,-5.7
2023/01/26 07:10:00,51.3,-5.6
2023/01/26 07:20:00,51.3,-5.6
2023/01/26 07:30:00,51.1,-5.6
2023/01/26 07:40:00,51.0,-5.7
2023/01/26 07:50:00,51.0,-5.2
2023/01/26 08:00:00,51.0,-4.9
2023/01/26 08:10:00,50.8,-4.9
2023/01/26 08:20:00,50.7,-4.8
2023/01/26 08:30:00,50.7,-4.5
2023/01/26 08:40:00,50.7,-3.9
2023/01/26 08:50:00,50.7,-4.0
2023/01/26 09:00:00,50.6,-3.7
2023/01/26 09:10:00,50.6,-3.2
2023/01/26 09:20:00,50.5,-3.2
2023/01/26 09:30:00,50.4,-2.3
2023/01/26 09:40:00,50.3,-1.9
2023/01/26 09:50:00,50.2,-1.8
2023/01/26 10:00:00,50.1,-1.4
2023/01/26 10:10:00,50.1,-1.6
2023/01/26 10:20:00,50.1,-1.4
2023/01/26 10:30:00,50.1,-1.4
2023/01/26 10:40:00,50.1,-0.8
2023/01/26 10:50:00,50.3, 1.2
2023/01/26 11:00:00,50.6, 2.4
2023/01/26 11:10:00,50.6, 1.6
2023/01/26 11:20:00,50.7, 6.9
2023/01/26 11:30:00,49.9, 3.4
2023/01/26 11:40:00,49.5, 4.4
2023/01/26 11:50:00,49.1, 4.6
2023/01/26 12:00:00,48.5, 4.7
2023/01/26 12:10:00,47.9, 2.6
2023/01/26 12:20:00,47.7, 5.1
2023/01/26 12:30:00,47.6, 4.1
2023/01/26 12:40:00,47.4, 3.8
2023/01/26 12:50:00,46.9, 3.2
2023/01/26 13:00:00,46.2, 2.4
2023/01/26 13:10:00,46.1, 2.2
2023/01/26 13:20:00,46.1, 2.0
2023/01/26 13:30:00,45.9, 2.0
2023/01/26 13:40:00,45.6, 1.4
2023/01/26 13:50:00,45.4, 1.5
2023/01/26 14:00:00,45.3, 1.4
2023/01/26 14:10:00,45.2, 1.5
2023/01/26 14:20:00,45.0, 1.4
2023/01/26 14:30:00,44.8, 1.1
2023/01/26 14:40:00,44.8, 1.2
2023/01/26 14:50:00,44.8, 1.2
2023/01/26 15:00:00,44.5, 0.9
2023/01/26 15:10:00,44.2, 1.3
2023/01/26 15:20:00,44.0, 0.7
2023/01/26 15:30:00,43.9, 0.4
2023/01/26 15:40:00,43.8, 0.4
2023/01/26 15:50:00,43.7, 1.0
2023/01/26 16:00:00,43.3, 0.9
2023/01/26 16:10:00,43.0, 1.0
2023/01/26 16:20:00,42.8, 0.2
2023/01/26 16:30:00,42.9, 0.2
2023/01/26 16:40:00,42.9, 0.5
2023/01/26 16:50:00,42.8, 0.4
2023/01/26 17:00:00,42.6, 0.3
2023/01/26 17:10:00,42.6,-0.1
2023/01/26 17:20:00,42.5, 0.0
2023/01/26 17:30:00,42.4,-0.6
2023/01/26 17:40:00,42.2,-0.5
2023/01/26 17:50:00,42.0,-0.5
2023/01/26 18:00:00,42.0,-0.5
2023/01/26 18:10:00,42.0,-0.8
2023/01/26 18:20:00,41.8,-0.8
2023/01/26 18:30:00,41.7,-0.7
2023/01/26 18:40:00,41.7,-0.7
2023/01/26 18:50:00,41.5,-0.9
2023/01/26 19:00:00,41.4,-0.9
2023/01/26 19:10:00,41.4,-1.0
2023/01/26 19:20:00,41.3,-0.7
2023/01/26 19:30:00,41.1,-0.7
2023/01/26 19:40:00,41.0,-1.0
2023/01/26 19:50:00,40.9,-0.7
2023/01/26 20:00:00,40.8,-0.8
2023/01/26 20:10:00,40.6,-1.0
2023/01/26 20:20:00,40.4,-1.0
2023/01/26 20:30:00,40.1,-1.0
2023/01/26 20:40:00,40.0,-1.1
2023/01/26 20:50:00,39.9,-0.9
2023/01/26 21:00:00,39.8,-0.9
2023/01/26 21:10:00,39.7,-1.1
2023/01/26 21:20:00,39.7,-0.9
2023/01/26 21:30:00,39.7,-1.1
2023/01/26 21:40:00,39.7,-1.1
2023/01/26 21:50:00,39.7,-1.1
2023/01/26 22:00:00,39.6,-1.1
2023/01/26 22:10:00,39.5,-1.1
2023/01/26 22:20:00,39.4,-0.9
2023/01/26 22:30:00,39.3,-1.1
2023/01/26 22:40:00,39.2,-1.1
2023/01/26 22:50:00,39.0,-1.3
2023/01/26 23:00:00,38.9,-1.2
2023/01/26 23:10:00,38.7,-1.2
2023/01/26 23:20:00,38.6,-1.1
2023/01/26 23:30:00,38.7,-1.2
2023/01/26 23:40:00,38.8,-1.2
2023/01/26 23:50:00,38.7,-1.3
